Location: Unspecified
(0.0000°N, 0.0000°E)
Time: 13:05:39
(UTC+00:00)

Vanguard 2 - Pass Details

Date: 13 December 2017
Orbit: 553 x 2939 km, 32.9° (Epoch: 19 July)

Event Time Altitude Azimuth Distance (km) Brightness Sun altitude
Rises 10:18:40 0° 228° (SW) 6,795 12.3 57.2°
Reaches altitude 10° 10:23:28 10° 225° (SW) 5,724 12.1 58.0°
Maximum altitude 10:40:21 61° 148° (SSE) 2,593 14.3 60.7°
Drops below altitude 10° 10:51:38 10° 70° (ENE) 4,002 11.4 62.3°
Sets 10:54:21 0° 66° (ENE) 4,713 11.6 62.6°
